Flag for Italy Weather past 2 weeks in Palermo, Italy

Now
55 °F

Passing clouds.


Feels Like: 53 °F
Forecast: 57 / 64 °F
Wind: 9 mph from South

Location: Palermo / Punta Raisi

Current Time: Dec 20, 2014 at 2:09:29 AM

Latest Report: Dec 20, 2014 at 1:20 AM


Visibility: N/A

Pressure: 30.27 "Hg

Humidity: 82%

Dew point: 50 °F

Location of PalermoLocation

Historic Weather in Palermo — Graph

°F

Palermo temperature yesterday

Maximum temperature yesterday: 63 °F (at 10:50 AM)
Minimum temperature yesterday: 52 °F (at 6:50 AM)
Average temperature yesterday: 58 °F

Past Weeks' High & Low Weather Summary

 TemperatureHumidityPressure
High68 °F (Dec 15, 1:50 PM)94% (Dec 5, 8:20 AM)30.30 "Hg (Dec 5, 8:20 AM)
Low50 °F (Dec 13, 2:20 AM)42% (Dec 14, 6:50 PM)29.74 "Hg (Dec 9, 12:20 PM)
Average60 °F69%30.03 "Hg
* Reported Dec 5 12:20 AM — Dec 20 12:50 AM, Palermo, Weather by CustomWeather, © 2014

Note: Actual official high and low records may vary slightly from our data, if they occured in-between our weather recording intervals... More about our weather records

Advertising

Palermo weather history for previous 24 hours

 ConditionsComfort  
Time TempWeatherWind HumidityBarometerVisibility
12:50 AM
Dec 20
55 °FPassing clouds.10 mph82%30.27 "HgN/A
12:20 AM55 °FPassing clouds.8 mph82%30.30 "HgN/A
11:50 PM
Dec 19
55 °FPassing clouds.9 mph82%30.30 "HgN/A
11:20 PM55 °FClear.8 mph82%30.30 "Hg10 mi
10:50 PM55 °FPassing clouds.8 mph82%30.30 "HgN/A
10:20 PM54 °FPassing clouds.8 mph88%30.30 "HgN/A
9:50 PM55 °FPassing clouds.7 mph82%30.30 "HgN/A
9:20 PM55 °FPassing clouds.5 mph82%30.30 "HgN/A
8:50 PM57 °FPassing clouds.3 mph82%30.30 "HgN/A
8:20 PM57 °FPassing clouds.5 mph82%30.30 "HgN/A
7:50 PM57 °FPassing clouds.5 mph82%30.30 "HgN/A
7:20 PM57 °FPassing clouds.3 mph82%30.30 "HgN/A
6:50 PM59 °FPassing clouds.2 mph72%30.30 "HgN/A
6:20 PM61 °FPassing clouds.5 mph72%30.27 "HgN/A
5:50 PM61 °FPassing clouds.6 mph72%30.27 "HgN/A
5:20 PM63 °FPassing clouds.6 mph68%30.27 "HgN/A
4:50 PM63 °FPassing clouds.6 mph68%30.27 "HgN/A
4:20 PM63 °FPassing clouds.7 mph68%30.27 "HgN/A
3:50 PM63 °FPassing clouds.7 mph73%30.27 "HgN/A
3:20 PM63 °FScattered clouds.8 mph73%30.27 "HgN/A
2:50 PM63 °FPassing clouds.8 mph73%30.27 "HgN/A
2:20 PM63 °FPassing clouds.8 mph73%30.27 "HgN/A
1:50 PM63 °FScattered clouds.8 mph73%30.27 "HgN/A
1:20 PM63 °FScattered clouds.3 mph77%30.27 "HgN/A
12:50 PM63 °FPassing clouds.5 mph77%30.27 "HgN/A
12:20 PM63 °FPassing clouds.3 mph77%30.30 "HgN/A
11:50 AM63 °FScattered clouds.5 mph77%30.30 "HgN/A
11:20 AM63 °FScattered clouds.5 mph77%30.30 "HgN/A
10:50 AM63 °FPassing clouds.3 mph77%30.30 "HgN/A
10:20 AM61 °FScattered clouds.5 mph77%30.30 "HgN/A
9:50 AM59 °FPassing clouds.6 mph88%30.30 "HgN/A
9:20 AM59 °FScattered clouds.7 mph88%30.27 "HgN/A
8:50 AM55 °FScattered clouds.3 mph94%30.27 "HgN/A
8:20 AM54 °FScattered clouds.3 mph88%30.24 "HgN/A
7:50 AM52 °FPassing clouds.5 mph94%30.24 "HgN/A
7:20 AM52 °FSunny.3 mph94%30.24 "Hg10 mi
6:50 AM52 °FPassing clouds.5 mph94%30.24 "HgN/A
5:50 AM55 °FPassing clouds.3 mph88%30.24 "HgN/A
4:20 AM55 °FPassing clouds.3 mph88%30.21 "HgN/A
3:20 AM57 °FPassing clouds.1 mph88%30.21 "HgN/A
2:50 AM55 °FPassing clouds.2 mph88%30.21 "HgN/A
2:20 AM55 °FPassing clouds.5 mph88%30.21 "HgN/A
Weather by CustomWeather, © 2014

See weather overviewHow to use our weather pages